Flag for U.S.A. Weather past 2 weeks in Gloucester, Massachusetts, U.S.A.

Now
44 °F

Mostly cloudy.


Feels Like: 41 °F
Forecast: 38 / 43 °F
Wind: 6 mph from Northeast

Location: Beverly Municipal Airport

Current Time: Mar 27, 2015 at 12:22:40 AM

Latest Report: Mar 26, 2015 at 11:00 PM


Visibility: 9 mi

Pressure: 29.66 "Hg

Humidity: 93%

Dew point: 42 °F

Location of GloucesterLocation

Historic Weather in Gloucester — Graph

°F

Gloucester temperature yesterday

Maximum temperature yesterday: 52 °F (at 12:53 PM)
Minimum temperature yesterday: 37 °F (at 1:00 AM)
Average temperature yesterday: 45 °F

Past Weeks' High & Low Weather Summary

 TemperatureHumidityPressure
High52 °F (Mar 26, 12:53 PM)100% (Mar 15, 6:53 AM)30.61 "Hg (Mar 15, 6:53 AM)
Low13 °F (Mar 24, 6:53 AM)19% (Mar 16, 3:53 PM)29.34 "Hg (Mar 17, 3:53 PM)
Average31 °F57%30.03 "Hg
* Reported Mar 11 11:53 PM — Mar 26 11:00 PM, Gloucester, Weather by CustomWeather, © 2015

Note: Actual official high and low records may vary slightly from our data, if they occured in-between our weather recording intervals... More about our weather records

Advertising

Gloucester weather history for previous 24 hours

 ConditionsComfort  
Time TempWeatherWind HumidityBarometerVisibility
11:00 PM
Thu, Mar 26
44 °FMostly cloudy.6 mph93%29.66 "Hg9 mi
10:01 PM44 °FLight rain. Fog.9 mph93%29.65 "Hg3 mi
9:04 PM45 °FLight rain. Fog.7 mph93%29.64 "Hg1 mi
8:53 PM44 °FLight rain. Fog.7 mph93%29.64 "Hg0 mi
7:53 PM46 °FLight rain. Fog.5 mph93%29.62 "Hg1 mi
6:53 PM47 °FFog.No wind97%29.63 "Hg0 mi
5:53 PM47 °FLight rain. Fog.No wind93%29.65 "Hg0 mi
4:59 PM46 °FRain. Fog.No wind96%29.65 "Hg0 mi
4:00 PM50 °FFog.6 mph93%29.71 "Hg2 mi
2:53 PM51 °FLight rain. Overcast.6 mph83%29.72 "Hg5 mi
2:03 PM50 °FLight rain. Mostly cloudy.7 mph77%29.75 "Hg6 mi
1:53 PM52 °FCloudy.9 mph72%29.75 "Hg10 mi
12:53 PM52 °FScattered clouds.8 mph66%29.78 "Hg10 mi
11:53 AM48 °FPassing clouds.10 mph77%29.84 "Hg10 mi
10:53 AM47 °FPassing clouds.9 mph80%29.89 "Hg10 mi
9:53 AM44 °FLow clouds.10 mph85%29.91 "Hg7 mi
8:53 AM44 °FLow clouds.9 mph85%29.93 "Hg8 mi
7:53 AM43 °FOvercast.9 mph89%29.93 "Hg7 mi
6:53 AM42 °FMostly cloudy.6 mph92%29.95 "Hg8 mi
5:53 AM42 °FLow clouds.7 mph92%29.96 "Hg10 mi
4:53 AM41 °FFog.7 mph89%29.96 "Hg6 mi
3:53 AM38 °FFog.3 mph97%30.00 "Hg3 mi
2:53 AM38 °FFog.5 mph97%30.03 "Hg4 mi
1:53 AM38 °FFog.8 mph90%30.07 "Hg3 mi
1:00 AM37 °FMostly cloudy.6 mph89%30.12 "Hg7 mi
Weather by CustomWeather, © 2015

See weather overviewHow to use our weather pages